Content
SEND FEEDBACK

Daily
Averages
Monthly
Summary
United States of America

WRIGHTSVILLE BEACH, NORTH CAROLINA


Home > North America > United States > North Carolina
Elevation: 25 feet     Latitude: 34 16N     Longitude: 077 54W

WEATHER
 
SELECT A DAY
Number of Records: 213,275;   Date Range: 1/1/95 - 11/24/14
 
SHARE

PRINT THIS DATA

[ ← Previous Day ]
WEATHER ALMANAC - AUGUST 18, 2013
[ Next Day → ]
[ °C ]   °F
Weather ElementAverageHighLow
Temperature77.5 °F88 °F (3:53 pm)71.1 °F (4:53 am)
Dewpoint72.1 °F75.2 °F (6:11 pm)69.1 °F (4:53 pm)
Humidity84.6 %100 % (12:36 am)55 % (4:53 pm)
Barometer30.16 in30.20 in (10:53 am)30.13 in (1:59 am)
Wind Speed4.2 mph9.2 mph (12:53 am)
Weather ElementAverage
Visibility9.4 mi
Wind DirectionS (182.2 °)

Weather ElementTotal
Precipitation---
Cooling Degree Days14.6 (Base 65)
Growing Degree Days29.6 (Base 50)
Averaged from 32 records on August 18, 2013
WEATHER CONDITIONS BREAKOUT
WIND DIRECTION BREAKOUT
WEATHER BY HOUR - AUGUST 18, 2013
[ °C ]   °F
Local TimeTemperatureDewpointHumidityBarometerVisibilityWind DirectionWind SpeedGust SpeedPrecipitationEventsConditions
12:36 AM73.4 °F73.4 °F100 %30.14 in10.0 miSW (230°)4.6 mphMostly Cloudy
12:53 AM73.9 °F73.0 °F97 %30.14 in9.0 miWSW (250°)9.2 mphOvercast
1:53 AM73.0 °F72.0 °F96 %30.14 in10.0 miWSW (250°)5.8 mphMostly Cloudy
1:59 AM73.4 °F71.6 °F94 %30.13 in10.0 miWSW (250°)5.8 mphScattered Clouds
2:53 AM72.0 °F71.1 °F97 %30.13 in9.0 miWSW (250°)5.8 mphScattered Clouds
3:42 AM71.6 °F71.6 °F100 %30.13 in8.0 miWSW (240°)3.5 mphMostly Cloudy
3:53 AM72.0 °F70.0 °F93 %30.13 in8.0 miWSW (250°)3.5 mphMostly Cloudy
4:53 AM71.1 °F70.0 °F96 %30.14 in7.0 miWSW (240°)5.8 mphOvercast
5:53 AM71.1 °F70.0 °F96 %30.14 in6.0 miWSW (240°)3.5 mphOvercast
6:53 AM71.1 °F70.0 °F96 %30.17 in7.0 miWNW (290°)5.8 mphOvercast
7:53 AM73.0 °F71.1 °F93 %30.17 in8.0 miNW (320°)4.6 mphMostly Cloudy
8:13 AM73.4 °F71.6 °F94 %30.18 in10.0 miWest (270°)3.5 mphMostly Cloudy
8:32 AM73.4 °F71.6 °F94 %30.18 in10.0 miWest (270°)3.5 mphMostly Cloudy
8:53 AM75.0 °F72.0 °F90 %30.19 in10.0 miWest (280°)5.8 mphOvercast
9:50 AM77.0 °F71.6 °F83 %30.18 in10.0 miCalmPartly Cloudy
9:53 AM77.0 °F72.0 °F84 %30.19 in10.0 miWNW (300°)3.5 mphPartly Cloudy
10:53 AM79.0 °F73.0 °F82 %30.20 in10.0 miWSW (240°)3.5 mphScattered Clouds
11:53 AM81.0 °F72.0 °F74 %30.20 in10.0 miVariable3.5 mphPartly Cloudy
12:53 PM82.0 °F71.1 °F69 %30.19 in10.0 miCalmClear
1:53 PM84.9 °F72.0 °F65 %30.18 in10.0 miVariable4.6 mphClear
2:53 PM86.0 °F70.0 °F59 %30.17 in10.0 miWest (280°)6.9 mphClear
3:53 PM88.0 °F71.1 °F57 %30.14 in10.0 miWNW (300°)4.6 mphPartly Cloudy
4:53 PM87.1 °F69.1 °F55 %30.14 in10.0 miWSW (250°)4.6 mphClear
5:53 PM84.0 °F73.9 °F72 %30.13 in10.0 miSE (140°)8.1 mphMostly Cloudy
6:02 PM82.4 °F73.4 °F74 %30.13 in10.0 miSE (130°)6.9 mphMostly Cloudy
6:11 PM84.2 °F75.2 °F74 %30.13 in10.0 miSE (140°)4.6 mphMostly Cloudy
6:53 PM82.9 °F73.9 °F74 %30.13 in10.0 miSE (140°)3.5 mphClear
7:53 PM80.1 °F73.0 °F79 %30.14 in10.0 miESE (110°)4.6 mphClear
8:53 PM78.1 °F73.9 °F87 %30.16 in10.0 miSouth (170°)4.6 mphClear
9:53 PM77.0 °F75.0 °F94 %30.17 in10.0 miCalmClear
10:53 PM77.0 °F75.0 °F94 %30.17 in10.0 miCalmClear
11:53 PM75.9 °F73.9 °F94 %30.17 in10.0 miCalmClear
Hourly data recorded from KILM, located miles away from Wrightsville Beach, North Carolina







STORIES FROM OUR PARTNERS